Probability
0 0 0 0 0 0 0 0 0 0 0 0 0 0 0 0 0 0 0 0 0 0 0 0 0 0 0 0 0 0 0 0 0 0 0 0 0 0
0 0 0 0 0 0 0 0 0 0 0 0 0 0 0 0 0 0 0 0 0 0 0 0 0 0 0 0 0 0 0 0 0 0 0 0 0 0
0 0 0 0 0 0 0 0 0 0 0 0 0 0 0 0 0 0 0 0 0 0 0 0 0 0 0 0 0 0 0 0 0 0 0 0 0 0
0 0 0 0 0 0 0 0 0 0 0 0 0 0 0 0 0 0 0 0 0 0 0 0 0 0 0 0 0 0 0 0 0 0 0 0 0 0
0 0 0 0 0 0 0 0 0 0 0 0 0 0 0 0 0 0 0 0 0 0 0 0 0 0 0 0 0 0 0 0 0 0 0 0 0 0
0 0 0 0 0 0 0 0 0 0 0 0 0 0 0 0 0 0 0 0 0 0 0 0 0 0 0 0 0 0 0 0 0 0 0 0 0 0
0 0 0 0 0 0 0 0 0 0 0 0 0 0 0 0 0 0 0 0 0 0 0 0 0 0 0 0 0 0 0 0 0 0 0 0 0 0
0 0 0 0 0 0 0 0 0 0 0 0 0 0 0 0 0 0 0 0 0 0 0 0 0 0 0 0 0 0 0 0 0 0 0 0 0 0
0 0 0 0 0 0 0 0 0 0 0 0 0 0 0 0 0 0 0 0 0 0 0 0 0 0 0 0 0 0 0 0 0 0 0 0 0 0
0 0 0 0 0 0 0 0 0 0 0 0 0 0 0 0 0 0 0 0 0 0 0 0 0 0 0 0 0 0 0 0 0 0 0 0 0 0
0 0 0 0 0 0 0 0 0 0 0 0 0 0 0 0 0 0 0 0 0 0 0 0 0 0 0 0 0 0 0 0 0 0 0 0 0 0
0 0 0 0 0 0 0 0 0 0 0 0 0 0 0 0 0 0 0 0 0 0 0 0 0 0 0 0 0 0 0 0 0 0 0 0 0 0
0 0 0 0 0 0 0 0 0 0 0 0 0 0 0 0 0 0 0 0 0 0 0 0 0 0 0 0 0 0 0 0 0 0 0 0 0 0
0 0 0 0 0 0 0 0 0 0 0 0 0 0 0 0 0 0 0 0 0 0 0 0 0 0 0 0 0 0 0 0 0 0 0 0 0 0
0 0 0 0 0 0 0 0 0 0 0 0 0 0 0 0 0 0 0 0 0 0 0 0 0 0 0 0 0 0 0 0 0 0 0 0 0 0
0 0 0 0 0 0 0 0 0 0 0 0 0 0 0 0 0 0 0 0 0 0 0 0 0 0 0 0 0 0 0 0 0 0 0 0 0 0
0 0 0 0 0 0 0 0 0 0 0 0 0 0 0 0 0 0 0 0 0 0 0 0 0 0 0 0 0 0 0 0 0 0 0 0 0 0
0 0 0 0 0 0 0 0 0 0 0 0 0 0 0 0 0 0 0 0 0 0 0 0 0 0 0 0 0 0 0 0 0 0 0 0 0 0
0 0 0 0 0 0 0 0 0 0 0 0 0 0 0 0 0 0 0 0 0 0 0 0 0 0 0 0 0 0 0 0 0 0 0 0 0 0
0 0 0 0 0 0 0 0 0 0 0 0 0 0 0 0 0 0 0 0 0 0 0 0 0 0 0 0 0 0 0 0 0 0 0 0 0 0
0 0 0 0 0 0 0 0 0 0 0 0 0 0 0 0 0 0 0 0 0 0 0 0 0 0 0 0 0 0 0 0 0 0 0 0 0 0
0 0 0 0 0 0 0 0 0 0 0 0 0 0 0 0 0 0 0 0 0 0 0 0 0 0 0 0 0 0 0 0 0 0 0 0 0 0
0 0 0 0 0 0 0 0 0 0 0 0 0 0 0 0 0 0 0 0 0 0 0 0 0 0 0 0 0 0 0 0 0 0 0 0 0 0
Wind_Speed
5 6 5 4 4 4 4 4 5 6 5 4 2 1 1 2 3 3 3 3 4 4 5 5 6 6 7 8 8 9 10 11 11 11 12 12 13 13
3 4 4 3 3 3 3 4 4 5 5 2 2 2 1 1 2 3 3 3 3 4 5 5 6 6 7 8 8 9 10 10 11 11 12 13 13 13
3 3 3 3 3 2 2 3 3 3 5 3 2 2 2 2 2 3 3 3 3 4 5 5 6 7 7 8 9 9 10 10 11 11 12 13 13 14
3 2 2 2 2 2 2 2 2 2 3 5 3 2 2 2 2 3 3 3 3 4 6 6 6 7 8 8 8 9 10 10 11 11 12 13 14 14
2 3 2 2 2 1 1 1 1 1 2 3 3 1 1 1 2 2 3 3 3 3 6 6 6 7 7 7 8 9 9 10 11 12 13 13 14 14
1 1 1 1 2 1 1 1 0 0 0 1 1 1 1 2 2 2 3 3 3 3 4 5 6 7 7 7 8 8 9 10 11 12 13 13 14 15
2 1 1 1 1 1 0 0 0 1 1 1 1 1 1 2 2 2 3 3 3 2 4 4 4 4 5 6 7 9 10 10 11 12 12 13 14 15
2 2 2 2 3 3 3 2 1 1 1 1 1 1 2 2 2 2 2 3 3 2 4 4 3 4 5 5 8 10 10 11 12 13 13 13 14 15
2 2 2 2 2 3 5 5 5 4 1 1 1 2 2 2 2 2 2 3 4 3 4 4 4 5 5 6 9 9 10 11 12 13 13 14 14 15
3 3 3 2 2 3 3 3 3 4 3 2 1 2 2 2 2 3 3 3 3 2 3 4 4 5 6 6 8 9 10 11 13 14 14 15 15 15
3 2 2 2 4 4 3 3 3 3 5 6 5 4 5 5 3 1 1 1 2 2 2 3 4 6 6 5 5 9 11 12 13 14 14 15 15 15
3 2 3 3 4 4 2 2 2 1 2 3 4 4 4 4 5 3 1 2 2 2 2 3 3 4 5 4 5 6 6 10 13 14 14 14 15 10
3 2 2 4 4 3 2 2 2 2 2 2 2 2 3 3 3 3 3 2 2 2 2 3 3 4 4 6 5 5 6 7 8 9 11 14 15 12
3 2 3 5 4 4 3 4 5 3 2 2 2 2 2 3 3 3 3 3 3 3 4 3 3 4 5 6 6 5 6 6 7 7 7 11 12 13
3 4 5 5 5 4 5 5 3 2 2 1 1 2 2 3 3 2 3 3 3 3 3 4 4 5 5 6 6 6 7 6 6 7 8 9 8 8
4 5 6 6 5 4 4 3 2 2 1 1 1 1 2 2 2 3 3 3 3 3 3 4 5 6 6 7 7 7 7 6 7 8 9 8 8 7
3 2 2 2 2 2 2 2 2 2 2 2 1 1 2 2 3 3 3 3 3 4 5 4 5 5 6 6 6 6 6 7 7 8 9 9 8 7
4 3 2 2 2 1 1 1 1 1 1 1 1 1 1 2 2 3 3 3 3 4 5 5 5 5 3 3 4 6 6 7 8 8 8 8 10 8
3 3 2 2 2 1 1 1 0 0 0 0 1 1 1 2 2 2 3 3 3 4 5 5 4 4 5 6 4 4 7 8 8 8 7 8 9 10
2 2 2 2 2 2 2 1 1 1 0 0 0 1 1 1 1 2 2 3 4 4 4 4 4 4 4 5 6 7 9 8 8 8 9 8 8 10
2 2 2 2 2 2 2 2 2 2 1 1 1 1 1 1 1 2 2 3 3 3 4 5 5 6 5 4 5 6 7 9 10 8 9 8 8 7
2 2 2 2 2 2 1 2 2 2 2 1 1 1 1 1 2 2 2 3 3 3 5 5 5 5 4 4 6 7 8 9 9 11 10 9 7 6
2 2 2 2 2 2 2 2 3 2 2 2 2 1 1 2 2 2 2 3 3 3 4 4 4 4 4 4 5 6 9 10 8 8 8 11 12 11
Wind_Direction
224 227 229 233 235 237 238 237 244 255 255 248 248 248 282 295 334 307 312 346 330 329 335 334 331 329 326 325 324 324 322 322 321 320 321 323 324 324
224 226 230 233 235 237 237 240 243 252 257 258 266 275 287 314 336 307 319 342 338 339 341 336 331 332 331 329 325 324 323 323 324 325 325 324 324 322
214 217 229 236 239 242 242 241 243 245 254 265 264 268 280 299 316 319 321 325 335 350 342 335 332 332 331 329 328 328 328 327 326 326 326 325 325 323
210 214 230 238 242 251 246 245 252 256 249 258 262 256 277 304 316 322 328 331 321 347 343 339 340 342 338 336 334 334 331 330 328 328 327 326 325 323
194 203 216 214 234 249 256 261 276 286 266 250 264 268 291 338 327 327 329 327 324 337 336 333 335 333 331 333 335 333 332 330 329 329 327 325 323 321
144 168 206 220 222 232 246 288 319 323 303 248 264 297 319 346 328 322 319 327 316 324 330 328 325 324 321 324 326 327 328 329 328 327 326 325 322 319
120 101 87 73 60 54 51 295 271 238 230 241 271 309 328 342 326 325 308 318 310 325 321 315 316 314 314 316 320 323 324 325 325 324 324 323 321 319
135 109 90 86 82 80 71 61 47 222 226 236 257 272 305 319 329 315 319 317 302 336 317 302 307 304 308 311 318 320 321 323 324 324 324 324 322 319
111 106 88 68 73 78 72 67 52 45 29 257 243 275 293 306 309 304 305 298 293 324 313 295 306 301 306 305 311 313 318 321 322 323 324 323 321 320
105 113 116 100 81 96 86 69 50 37 36 30 38 360 354 341 315 296 297 310 313 324 328 294 305 304 307 298 302 310 317 319 320 321 322 322 322 320
98 101 118 116 107 103 102 97 77 53 57 69 65 53 41 24 4 3 352 325 306 312 339 305 304 309 298 288 303 315 317 317 315 317 320 321 321 320
108 103 106 114 112 105 113 123 111 67 63 57 51 42 31 27 22 9 331 310 309 291 344 318 304 321 301 289 304 309 310 313 316 317 317 319 323 320
132 123 108 107 102 98 97 104 113 96 80 68 51 39 30 20 13 6 354 324 296 284 317 321 299 306 291 297 300 301 311 315 314 312 313 317 319 319
139 130 120 113 102 93 86 93 94 90 85 71 52 33 15 4 357 354 352 343 325 302 301 305 289 294 296 292 292 304 310 309 311 313 315 315 315 316
122 125 121 113 97 83 80 83 81 83 92 83 51 12 360 349 341 340 353 354 344 330 319 315 302 293 284 280 290 299 310 311 313 317 317 317 317 317
113 115 112 105 93 86 82 72 59 59 71 83 51 9 359 358 356 347 340 337 328 326 339 329 315 298 286 283 282 289 301 303 312 316 316 312 311 310
127 119 121 119 105 94 82 67 60 59 55 47 39 13 2 2 359 355 345 335 325 320 327 335 329 309 289 283 286 290 301 308 311 318 317 312 311 312
134 144 149 147 141 134 121 97 70 57 40 28 16 2 353 349 349 348 347 343 332 325 325 329 332 329 317 287 282 298 306 312 316 316 314 311 310 316
142 152 163 168 164 157 154 157 153 56 20 359 355 355 348 339 342 343 342 339 331 328 325 325 329 333 323 316 313 324 317 316 317 317 316 313 306 310
161 165 172 175 172 173 175 175 169 164 171 217 329 341 329 321 328 333 328 327 321 320 323 327 329 325 307 301 301 308 318 314 317 318 319 315 308 307
172 175 178 180 182 186 186 182 186 190 193 209 234 270 290 299 308 310 306 310 312 318 320 321 328 322 305 297 295 304 318 329 328 319 319 321 324 322
182 182 181 181 185 189 188 185 187 189 191 204 220 234 257 273 281 288 296 302 307 312 312 315 323 322 318 313 312 314 321 330 335 336 330 324 325 322
187 189 189 190 190 188 193 196 198 200 203 210 217 225 239 257 271 279 289 291 302 314 324 324 329 334 330 325 320 319 323 329 333 337 338 341 334 318